Flag for U.S.A. Weather past 2 weeks in Pierre, South Dakota, U.S.A.

Now
22 °F

Overcast.


Feels Like: 16 °F
Forecast: 26 / 48 °F
Wind: 5 mph from Northeast

Location: Pierre Regional Airport


UV Index: 0 (Low)

Visibility: 10 mi


Pressure: 30.34 "Hg

Humidity: 85%

Dew point: 18 °F

Location of PierreLocation

Historic Weather in Pierre

°F

Pierre temperature yesterday

Maximum temperature yesterday: 43 °F (at 12:53 AM)
Minimum temperature yesterday: 24 °F (at 11:53 PM)
Average temperature yesterday: 34 °F

Past Weeks' High & Low Weather Summary

 TemperatureHumidityPressure
High83 °F (Apr 9, 3:53 PM)96% (Apr 3, 3:53 AM)30.33 "Hg (Apr 3, 3:53 AM)
Low13 °F (Apr 15, 3:53 AM)15% (Apr 9, 3:53 PM)29.52 "Hg (Apr 16, 1:53 AM)
Average41 °F61%29.94 "Hg
* Reported Apr 2 4:53 AM — Apr 17 4:53 AM, Pierre, Weather by CustomWeather, © 2014

Note: Actual official high and low records may vary slightly from our data, if they occured in-between our weather recording intervals... More about our weather records

Advertising

Historic Weather Conditions — Data for Previous 24 hours

 ConditionsComfort  
Time TempWeatherWind HumidityBarometerVisibility
4:53 AM
Apr 17
20 °FClear.6 mph89%30.33 "Hg10 mi
3:53 AM22 °FClear.No wind85%30.30 "Hg10 mi
2:53 AM26 °FPassing clouds.No wind77%30.29 "Hg10 mi
1:53 AM27 °FOvercast.3 mph75%30.30 "Hg10 mi
12:53 AM25 °FClear.No wind78%30.30 "Hg10 mi
11:53 PM
Apr 16
24 °FClear.5 mph77%30.29 "Hg10 mi
10:53 PM26 °FClear.7 mph77%30.28 "Hg10 mi
9:53 PM29 °FPassing clouds.6 mph75%30.25 "Hg10 mi
8:53 PM35 °FOvercast.15 mph61%30.21 "Hg10 mi
7:53 PM35 °FOvercast.9 mph64%30.19 "Hg10 mi
6:53 PM36 °FOvercast.16 mph64%30.16 "Hg10 mi
5:53 PM37 °FOvercast.16 mph62%30.12 "Hg10 mi
4:53 PM36 °FOvercast.17 mph67%30.10 "Hg10 mi
3:53 PM36 °FOvercast.18 mph67%30.08 "Hg10 mi
2:53 PM34 °FOvercast.17 mph73%30.05 "Hg10 mi
1:53 PM35 °FOvercast.21 mph75%30.01 "Hg10 mi
12:53 PM33 °FOvercast.21 mph78%29.97 "Hg10 mi
11:53 AM32 °FOvercast.22 mph82%29.94 "Hg10 mi
10:53 AM31 °FMostly cloudy.16 mph85%29.89 "Hg10 mi
9:53 AM30 °FOvercast.23 mph89%29.85 "Hg10 mi
8:53 AM30 °FLight snow. Ice fog.17 mph92%29.80 "Hg5 mi
7:53 AM31 °FLight freezing rain. Ice fog.14 mph89%29.74 "Hg6 mi
6:53 AM32 °FLight snow. Overcast.21 mph82%29.67 "Hg6 mi
Weather by CustomWeather, © 2014

See weather overview